Flag for Burundi Weather past 2 weeks in Muyinga, Burundi

Now
72 °F

Broken clouds.


Feels Like: 69 °F
Forecast: 60 / 75 °F
Wind: No wind

Location: Kigali Airport

Current Time: Oct 24, 2014 at 5:39:41 PM

Latest Report: Oct 24, 2014 at 5:30 PM


Visibility: N/A

Pressure: 30.07 "Hg

Humidity: 88%

Dew point: 68 °F

Location of MuyingaLocation

Historic Weather in Muyinga — Graph

°F

Muyinga temperature yesterday

Maximum temperature yesterday: 77 °F (at 12:30 PM)
Minimum temperature yesterday: 64 °F (at 1:30 AM)
Average temperature yesterday: 69 °F

Past Weeks' High & Low Weather Summary

 TemperatureHumidityPressure
High86 °F (Oct 10, 2:30 PM)100% (Oct 10, 1:00 AM)30.24 "Hg (Oct 10, 1:00 AM)
Low34 °F (Oct 20, 10:00 AM)37% (Oct 11, 4:30 PM)29.98 "Hg (Oct 17, 3:00 PM)
Average71 °F78%30.11 "Hg
* Reported Oct 9 3:00 PM — Oct 24 3:30 PM, Muyinga, Weather by CustomWeather, © 2014

Note: Actual official high and low records may vary slightly from our data, if they occured in-between our weather recording intervals... More about our weather records

Advertising

Muyinga weather history for previous 24 hours

 ConditionsComfort  
Time TempWeatherWind HumidityBarometerVisibility
3:30 PM
Oct 24
70 °FThunderstorms. Partly sunny.6 mph88%30.04 "HgN/A
3:00 PM70 °FThunderstorms. Broken clouds.6 mph94%30.04 "HgN/A
2:30 PM72 °FThunderstorms. Broken clouds.9 mph78%30.04 "HgN/A
2:00 PM77 °FPartly sunny.5 mph69%30.04 "HgN/A
1:30 PM77 °FPartly sunny.7 mph69%30.04 "HgN/A
12:00 PM77 °FScattered clouds.No wind65%30.09 "HgN/A
11:00 AM77 °FScattered clouds.No wind74%30.15 "HgN/A
10:30 AM75 °FScattered clouds.No wind78%30.15 "HgN/A
10:00 AM73 °FScattered clouds.No wind83%30.15 "HgN/A
9:30 AM72 °FScattered clouds.No wind83%30.18 "HgN/A
9:00 AM70 °FScattered clouds.5 mph88%30.18 "HgN/A
8:30 AM68 °FScattered clouds.6 mph94%30.18 "Hg5 mi
8:00 AM66 °FScattered clouds.3 mph100%30.18 "Hg5 mi
7:30 AM66 °FScattered clouds.No wind100%30.15 "HgN/A
7:00 AM64 °FScattered clouds.No wind100%30.15 "HgN/A
6:30 AM63 °FPassing clouds.No wind100%30.12 "HgN/A
6:00 AM61 °FPassing clouds.No wind100%30.12 "HgN/A
5:30 AM63 °FPassing clouds.No wind100%30.09 "HgN/A
5:00 AM63 °FPassing clouds.No wind100%30.09 "HgN/A
4:00 AM63 °FPassing clouds.3 mph100%30.09 "HgN/A
3:00 AM63 °FMild.3 mph100%30.09 "HgN/A
2:30 AM63 °FPassing clouds.3 mph100%30.09 "HgN/A
2:00 AM64 °FPassing clouds.3 mph100%30.09 "HgN/A
1:30 AM63 °FPassing clouds.3 mph100%30.09 "HgN/A
1:00 AM63 °FPassing clouds.3 mph100%30.09 "HgN/A
12:30 AM63 °FPassing clouds.3 mph100%30.12 "HgN/A
12:00 AM63 °FPassing clouds.3 mph100%30.12 "HgN/A
11:30 PM
Oct 23
64 °FPartly cloudy.No wind100%30.15 "HgN/A
5:00 PM66 °FThunderstorms. Partly sunny.15 mph94%30.09 "HgN/A
Weather by CustomWeather, © 2014

See weather overviewHow to use our weather pages